Time,TemperatureF,DewpointF,PressureIn,WindDirection,WindDirectionDegrees,WindSpeedMPH,WindSpeedGustMPH,Humidity,HourlyPrecipIn,Conditions,Clouds,dailyrainin,SoftwareType,DateUTC
2013-02-21 02:00:00,45.0,28.0,30.09,NNW,340,14.0,18.0,51,-99.99,,,-99.99,,2013-02-21 07:00:00,
2013-02-21 02:21:00,45.0,28.0,30.09,NNW,340,14.0,18.0,51,-99.99,,,-99.99,,2013-02-21 07:21:00,
2013-02-21 02:31:00,45.0,28.0,30.09,NNW,340,14.0,18.0,51,-99.99,,,-99.99,,2013-02-21 07:31:00,
2013-02-21 02:41:00,45.0,28.0,30.09,NNW,340,14.0,18.0,51,-99.99,,,-99.99,,2013-02-21 07:41:00,
2013-02-21 02:52:00,45.0,28.0,30.09,NNW,340,14.0,18.0,51,-99.99,,,-99.99,,2013-02-21 07:52:00,
2013-02-21 03:00:00,43.0,26.0,30.10,North,350,11.0,14.0,50,-99.99,,,-99.99,,2013-02-21 08:00:00,
2013-02-21 03:21:00,43.0,26.0,30.10,North,350,11.0,14.0,50,-99.99,,,-99.99,,2013-02-21 08:21:00,
2013-02-21 03:31:00,43.0,26.0,30.10,North,350,11.0,14.0,50,-99.99,,,-99.99,,2013-02-21 08:31:00,
2013-02-21 03:41:00,43.0,26.0,30.10,North,350,11.0,14.0,50,-99.99,,,-99.99,,2013-02-21 08:41:00,
2013-02-21 03:51:00,43.0,26.0,30.10,North,350,11.0,14.0,50,-99.99,,,-99.99,,2013-02-21 08:51:00,
2013-02-21 04:00:00,41.0,25.0,30.11,North,360,11.0,13.0,51,-99.99,,,-99.99,,2013-02-21 09:00:00,
2013-02-21 04:22:00,41.0,25.0,30.11,North,360,11.0,13.0,51,-99.99,,,-99.99,,2013-02-21 09:22:00,
2013-02-21 04:31:00,41.0,25.0,30.11,North,360,11.0,13.0,51,-99.99,,,-99.99,,2013-02-21 09:31:00,
2013-02-21 04:41:00,41.0,25.0,30.11,North,360,11.0,13.0,51,-99.99,,,-99.99,,2013-02-21 09:41:00,
2013-02-21 04:51:00,41.0,25.0,30.11,North,360,11.0,13.0,51,-99.99,,,-99.99,,2013-02-21 09:51:00,
2013-02-21 07:00:00,38.0,29.0,30.15,North,360,11.0,14.0,67,-99.99,,,-99.99,,2013-02-21 12:00:00,
2013-02-21 07:21:00,38.0,29.0,30.15,North,360,11.0,14.0,67,-99.99,,,-99.99,,2013-02-21 12:21:00,
2013-02-21 07:32:00,38.0,29.0,30.15,North,360,11.0,14.0,67,-99.99,,,-99.99,,2013-02-21 12:32:00,
2013-02-21 07:42:00,38.0,29.0,30.15,North,360,11.0,14.0,67,-99.99,,,-99.99,,2013-02-21 12:42:00,
2013-02-21 07:52:00,38.0,29.0,30.15,North,360,11.0,14.0,67,-99.99,,,-99.99,,2013-02-21 12:52:00,
2013-02-21 08:00:00,40.0,30.0,30.17,North,10,14.0,18.0,67,-99.99,,,-99.99,,2013-02-21 13:00:00,
2013-02-21 08:22:00,40.0,30.0,30.17,North,10,14.0,18.0,67,-99.99,,,-99.99,,2013-02-21 13:22:00,
2013-02-21 08:31:00,40.0,30.0,30.17,North,10,14.0,18.0,67,-99.99,,,-99.99,,2013-02-21 13:31:00,
2013-02-21 08:41:00,40.0,30.0,30.17,North,10,14.0,18.0,67,-99.99,,,-99.99,,2013-02-21 13:41:00,
2013-02-21 08:51:00,40.0,30.0,30.17,North,10,14.0,18.0,67,-99.99,,,-99.99,,2013-02-21 13:51:00,
2013-02-21 09:00:00,40.0,30.0,30.19,North,10,14.0,18.0,66,-99.99,,,-99.99,,2013-02-21 14:00:00,
2013-02-21 09:21:00,40.0,30.0,30.19,North,10,14.0,18.0,66,-99.99,,,-99.99,,2013-02-21 14:21:00,
2013-02-21 09:31:00,40.0,30.0,30.19,North,10,14.0,18.0,66,-99.99,,,-99.99,,2013-02-21 14:31:00,
2013-02-21 09:41:00,40.0,30.0,30.19,North,10,14.0,18.0,66,-99.99,,,-99.99,,2013-02-21 14:41:00,
2013-02-21 09:52:00,40.0,30.0,30.19,North,10,14.0,18.0,66,-99.99,,,-99.99,,2013-02-21 14:52:00,
2013-02-21 10:00:00,42.0,31.0,30.19,North,10,13.0,15.0,63,-99.99,,,-99.99,,2013-02-21 15:00:00,
2013-02-21 10:21:00,42.0,31.0,30.19,North,10,13.0,15.0,63,-99.99,,,-99.99,,2013-02-21 15:21:00,
2013-02-21 10:31:00,42.0,31.0,30.19,North,10,13.0,15.0,63,-99.99,,,-99.99,,2013-02-21 15:31:00,
2013-02-21 10:41:00,42.0,31.0,30.19,North,10,13.0,15.0,63,-99.99,,,-99.99,,2013-02-21 15:41:00,
2013-02-21 10:51:00,42.0,31.0,30.19,North,10,13.0,15.0,63,-99.99,,,-99.99,,2013-02-21 15:51:00,
2013-02-21 11:00:00,44.0,30.0,30.19,North,10,9.0,13.0,59,-99.99,,,-99.99,,2013-02-21 16:00:00,
2013-02-21 11:21:00,44.0,30.0,30.19,North,10,9.0,13.0,59,-99.99,,,-99.99,,2013-02-21 16:21:00,
2013-02-21 11:31:00,44.0,30.0,30.19,North,10,9.0,13.0,59,-99.99,,,-99.99,,2013-02-21 16:31:00,
2013-02-21 11:41:00,44.0,30.0,30.19,North,10,9.0,13.0,59,-99.99,,,-99.99,,2013-02-21 16:41:00,
2013-02-21 11:51:00,44.0,30.0,30.19,North,10,9.0,13.0,59,-99.99,,,-99.99,,2013-02-21 16:51:00,
2013-02-21 12:00:00,44.0,31.0,30.17,NE,40,7.0,9.0,59,-99.99,,,-99.99,,2013-02-21 17:00:00,
2013-02-21 12:21:00,44.0,31.0,30.17,NE,40,7.0,9.0,59,-99.99,,,-99.99,,2013-02-21 17:21:00,
2013-02-21 12:32:00,44.0,31.0,30.17,NE,40,7.0,9.0,59,-99.99,,,-99.99,,2013-02-21 17:32:00,
2013-02-21 12:41:00,44.0,31.0,30.17,NE,40,7.0,9.0,59,-99.99,,,-99.99,,2013-02-21 17:41:00,
2013-02-21 12:51:00,44.0,31.0,30.17,NE,40,7.0,9.0,59,-99.99,,,-99.99,,2013-02-21 17:51:00,
2013-02-21 13:00:00,46.0,29.0,30.15,NNW,340,2.0,5.0,51,-99.99,,,-99.99,,2013-02-21 18:00:00,
2013-02-21 13:21:00,46.0,29.0,30.15,NNW,340,2.0,5.0,51,-99.99,,,-99.99,,2013-02-21 18:21:00,
2013-02-21 13:31:00,46.0,29.0,30.15,NNW,340,2.0,5.0,51,-99.99,,,-99.99,,2013-02-21 18:31:00,
2013-02-21 13:42:00,46.0,29.0,30.15,NNW,340,2.0,5.0,51,-99.99,,,-99.99,,2013-02-21 18:42:00,
2013-02-21 13:51:00,46.0,29.0,30.15,NNW,340,2.0,5.0,51,-99.99,,,-99.99,,2013-02-21 18:51:00,
2013-02-21 14:00:00,45.0,31.0,30.14,ESE,120,3.0,5.0,57,-99.99,,,-99.99,,2013-02-21 19:00:00,
2013-02-21 14:21:00,45.0,31.0,30.14,ESE,120,3.0,5.0,57,-99.99,,,-99.99,,2013-02-21 19:21:00,
2013-02-21 14:31:00,45.0,31.0,30.14,ESE,120,3.0,5.0,57,-99.99,,,-99.99,,2013-02-21 19:31:00,
2013-02-21 14:41:00,45.0,31.0,30.14,ESE,120,3.0,5.0,57,-99.99,,,-99.99,,2013-02-21 19:41:00,
2013-02-21 14:51:00,45.0,31.0,30.14,ESE,120,3.0,5.0,57,-99.99,,,-99.99,,2013-02-21 19:51:00,
2013-02-21 15:00:00,46.0,30.0,30.13,SSE,160,5.0,7.0,53,-99.99,,,-99.99,,2013-02-21 20:00:00,
2013-02-21 15:21:00,46.0,30.0,30.13,SSE,160,5.0,7.0,53,-99.99,,,-99.99,,2013-02-21 20:21:00,
2013-02-21 15:31:00,46.0,30.0,30.13,SSE,160,5.0,7.0,53,-99.99,,,-99.99,,2013-02-21 20:31:00,
2013-02-21 15:41:00,46.0,30.0,30.13,SSE,160,5.0,7.0,53,-99.99,,,-99.99,,2013-02-21 20:41:00,
2013-02-21 15:52:00,46.0,30.0,30.13,SSE,160,5.0,7.0,53,-99.99,,,-99.99,,2013-02-21 20:52:00,
2013-02-21 16:00:00,46.0,32.0,30.11,SE,130,6.0,7.0,57,-99.99,,,-99.99,,2013-02-21 21:00:00,
2013-02-21 16:21:00,46.0,32.0,30.11,SE,130,6.0,7.0,57,-99.99,,,-99.99,,2013-02-21 21:21:00,
2013-02-21 16:31:00,46.0,32.0,30.11,SE,130,6.0,7.0,57,-99.99,,,-99.99,,2013-02-21 21:31:00,
2013-02-21 16:41:00,46.0,32.0,30.11,SE,130,6.0,7.0,57,-99.99,,,-99.99,,2013-02-21 21:41:00,
2013-02-21 16:51:00,46.0,32.0,30.11,SE,130,6.0,7.0,57,-99.99,,,-99.99,,2013-02-21 21:51:00,
2013-02-21 17:00:00,47.0,33.0,30.13,ESE,110,5.0,6.0,57,-99.99,,,-99.99,,2013-02-21 22:00:00,
2013-02-21 17:21:00,47.0,33.0,30.13,ESE,110,5.0,6.0,57,-99.99,,,-99.99,,2013-02-21 22:21:00,
2013-02-21 17:31:00,47.0,33.0,30.13,ESE,110,5.0,6.0,57,-99.99,,,-99.99,,2013-02-21 22:31:00,
2013-02-21 17:41:00,47.0,33.0,30.13,ESE,110,5.0,6.0,57,-99.99,,,-99.99,,2013-02-21 22:41:00,
2013-02-21 17:51:00,47.0,33.0,30.13,ESE,110,5.0,6.0,57,-99.99,,,-99.99,,2013-02-21 22:51:00,
2013-02-21 18:00:00,47.0,33.0,30.14,East,100,1.0,2.0,57,-99.99,,,-99.99,,2013-02-21 23:00:00,
2013-02-21 18:21:00,47.0,33.0,30.14,East,100,1.0,2.0,57,-99.99,,,-99.99,,2013-02-21 23:21:00,
2013-02-21 18:31:00,47.0,33.0,30.14,East,100,1.0,2.0,57,-99.99,,,-99.99,,2013-02-21 23:31:00,
2013-02-21 18:41:00,47.0,33.0,30.14,East,100,1.0,2.0,57,-99.99,,,-99.99,,2013-02-21 23:41:00,
2013-02-21 18:52:00,47.0,33.0,30.14,East,100,1.0,2.0,57,-99.99,,,-99.99,,2013-02-21 23:52:00,
2013-02-21 19:00:00,47.0,34.0,30.18,NE,40,6.0,8.0,59,-99.99,,,-99.99,,2013-02-22 00:00:00,
2013-02-21 19:21:00,47.0,34.0,30.18,NE,40,6.0,8.0,59,-99.99,,,-99.99,,2013-02-22 00:21:00,
2013-02-21 19:31:00,47.0,34.0,30.18,NE,40,6.0,8.0,59,-99.99,,,-99.99,,2013-02-22 00:31:00,
2013-02-21 19:41:00,47.0,34.0,30.18,NE,40,6.0,8.0,59,-99.99,,,-99.99,,2013-02-22 00:41:00,
2013-02-21 19:51:00,47.0,34.0,30.18,NE,40,6.0,8.0,59,-99.99,,,-99.99,,2013-02-22 00:51:00,
2013-02-21 20:00:00,46.0,28.0,30.21,NNE,20,9.0,10.0,48,-99.99,,,-99.99,,2013-02-22 01:00:00,
2013-02-21 20:21:00,46.0,28.0,30.21,NNE,20,9.0,10.0,48,-99.99,,,-99.99,,2013-02-22 01:21:00,
2013-02-21 20:32:00,46.0,28.0,30.21,NNE,20,9.0,10.0,48,-99.99,,,-99.99,,2013-02-22 01:32:00,
2013-02-21 20:41:00,46.0,28.0,30.21,NNE,20,9.0,10.0,48,-99.99,,,-99.99,,2013-02-22 01:41:00,
2013-02-21 20:51:00,46.0,28.0,30.21,NNE,20,9.0,10.0,48,-99.99,,,-99.99,,2013-02-22 01:51:00,
2013-02-21 21:00:00,46.0,30.0,30.23,NNE,20,13.0,15.0,53,-99.99,,,-99.99,,2013-02-22 02:00:00,
2013-02-21 21:21:00,46.0,30.0,30.23,NNE,20,13.0,15.0,53,-99.99,,,-99.99,,2013-02-22 02:21:00,
2013-02-21 21:31:00,46.0,30.0,30.23,NNE,20,13.0,15.0,53,-99.99,,,-99.99,,2013-02-22 02:31:00,
2013-02-21 21:41:00,46.0,30.0,30.23,NNE,20,13.0,15.0,53,-99.99,,,-99.99,,2013-02-22 02:41:00,
2013-02-21 21:52:00,46.0,30.0,30.23,NNE,20,13.0,15.0,53,-99.99,,,-99.99,,2013-02-22 02:52:00,
2013-02-21 22:00:00,47.0,31.0,30.23,NNE,30,18.0,21.0,54,-99.99,,,-99.99,,2013-02-22 03:00:00,
2013-02-21 22:21:00,47.0,31.0,30.23,NNE,30,18.0,21.0,54,-99.99,,,-99.99,,2013-02-22 03:21:00,
2013-02-21 22:31:00,47.0,31.0,30.23,NNE,30,18.0,21.0,54,-99.99,,,-99.99,,2013-02-22 03:31:00,
2013-02-21 22:41:00,47.0,31.0,30.23,NNE,30,18.0,21.0,54,-99.99,,,-99.99,,2013-02-22 03:41:00,
2013-02-21 22:51:00,47.0,31.0,30.23,NNE,30,18.0,21.0,54,-99.99,,,-99.99,,2013-02-22 03:51:00,
2013-02-21 23:00:00,47.0,30.0,30.23,NNE,30,21.0,24.0,52,-99.99,,,-99.99,,2013-02-22 04:00:00,
2013-02-21 23:21:00,47.0,30.0,30.23,NNE,30,21.0,24.0,52,-99.99,,,-99.99,,2013-02-22 04:21:00,
2013-02-21 23:31:00,47.0,30.0,30.23,NNE,30,21.0,24.0,52,-99.99,,,-99.99,,2013-02-22 04:31:00,
2013-02-21 23:41:00,47.0,30.0,30.23,NNE,30,21.0,24.0,52,-99.99,,,-99.99,,2013-02-22 04:41:00,
2013-02-21 23:51:00,47.0,30.0,30.23,NNE,30,21.0,24.0,52,-99.99,,,-99.99,,2013-02-22 04:51:00,